Weather in Rucphen

Netherlands     51°31′58″N   4°33′35″E
temp.,
°C
wind,
m/s
gust,
m/s
humid.,
%
clouds,
%
prec.,
mm/h
press.,
hPa
HPBL,
m
4 july, mon
mon423:00+13wnw22820 0.0 102020
02:00+13wsw23890 0.0 102026
05:00+12sw359175 0.0 102073
08:00+15sw57755 0.0 1020319
11:00+20w455927 0.1 10201311
14:00+22wnw454720 0.3 10201732
17:00+22wnw55485 0.0 10201453
20:00+20wnw46515 0.0 1020632
5 july, tue
tue523:00+14nnw34790 0.0 102148
02:00+12ene11861 0.0 102110
05:00+12ssw229174 0.0 102120
08:00+16w3576100 0.0 1022355
11:00+20nw66511 0.0 10231547
14:00+20wnw77475 0.0 10241662
17:00+19nw77485 0.0 10241419
20:00+17nw67530 0.0 1025969
6 july, wed
wed623:00+11nw22845 0.0 102619
02:00+10wnw228747 0.0 102610
05:00+10wsw118797 0.0 102610
08:00+15sw347099 0.0 1026241
11:00+19wsw5653100 0.0 1025931
14:00+21w6757100 0.0 10241295
17:00+17wnw4881100 0.2 1023619
20:00+19wnw587623 0.3 1023923
7 july, thu
thu723:00+17wsw3683100 0.1 1022187
02:00+17wsw389050 0.3 1021187
05:00+17wnw5109355 0.3 1020553
08:00+16nw61090100 0.5 1022658
11:00+20nnw9105857 0.1 10231381
14:00+20nnw9105285 0.3 10251756
17:00+20nnw910450 0.0 10271499
20:00+17n79540 0.0 10281258
8 july, fri
fri823:00+12nnw36820 0.0 1030103
02:00+11nw35910 0.0 103169
05:00+11nw33924 0.0 103141
08:00+15nnw3778100 0.0 1031552
11:00+18n3565100 0.0 10311148
14:00+21n3557100 0.1 10311473
17:00+23nnw664966 0.1 10311704
20:00+19nw5658100 0.1 1031505